UAL1579 KMCI-KDEN

Flight info

Callsign UAL1579
Flight time N/A
Altitude 30000
Route WLDCT6 SLN J24 OATHE CLASH5
Aircraft A319/M-SDE3FGHIRWY/LB1

Departure

Time N/A
Airport Kansas City International Airport (KMCI)

Arrival

Time 2026-05-05 03:09
Airport Denver International Airport (KDEN)
Time Latitude Longitude Altitude Speed Heading
2026-05-05 02:44 38.85571 -102.74778 29689 ft 382 kts 292°
2026-05-05 02:44 38.88549 -102.81761 29696 ft 389 kts 296°
2026-05-05 02:45 38.91203 -102.87894 29705 ft 395 kts 296°
2026-05-05 02:45 38.93430 -102.93017 29711 ft 395 kts 296°
2026-05-05 02:46 38.96108 -102.99190 29722 ft 395 kts 296°
2026-05-05 02:46 38.99202 -103.06377 29722 ft 395 kts 296°
2026-05-05 02:47 39.01424 -103.11565 29721 ft 395 kts 296°
2026-05-05 02:47 39.04058 -103.17736 29707 ft 392 kts 295°
2026-05-05 02:48 39.06779 -103.23781 29732 ft 397 kts 298°
2026-05-05 02:48 39.08235 -103.26811 29558 ft 400 kts 298°
2026-05-05 02:48 39.09716 -103.29852 29300 ft 403 kts 298°
2026-05-05 02:48 39.11207 -103.32918 29034 ft 405 kts 298°
2026-05-05 02:49 39.12694 -103.35999 28777 ft 406 kts 298°
2026-05-05 02:49 39.14170 -103.39086 28190 ft 404 kts 298°
2026-05-05 02:49 39.15646 -103.42198 27061 ft 408 kts 298°
2026-05-05 02:49 39.17117 -103.45329 26202 ft 408 kts 298°
2026-05-05 02:50 39.18549 -103.48385 25589 ft 401 kts 298°
2026-05-05 02:50 39.19985 -103.51442 24933 ft 396 kts 298°
2026-05-05 02:50 39.21409 -103.54470 24226 ft 394 kts 298°
2026-05-05 02:50 39.22826 -103.57479 23537 ft 391 kts 299°
2026-05-05 02:51 39.24231 -103.60472 22769 ft 389 kts 299°
2026-05-05 02:51 39.25621 -103.63437 22104 ft 384 kts 299°
2026-05-05 02:51 39.26976 -103.66329 21867 ft 370 kts 299°
2026-05-05 02:51 39.28289 -103.69128 21599 ft 360 kts 298°
2026-05-05 02:52 39.29588 -103.71820 21346 ft 357 kts 300°
2026-05-05 02:52 39.30965 -103.74489 20895 ft 356 kts 301°
2026-05-05 02:52 39.32371 -103.77113 20339 ft 354 kts 302°
2026-05-05 02:52 39.33780 -103.79711 19771 ft 352 kts 302°
2026-05-05 02:53 39.35178 -103.82294 19208 ft 350 kts 302°
2026-05-05 02:53 39.36559 -103.84864 18654 ft 347 kts 301°
2026-05-05 02:53 39.37919 -103.87420 18026 ft 344 kts 301°
2026-05-05 02:53 39.39264 -103.89968 17568 ft 342 kts 301°
2026-05-05 02:54 39.40587 -103.92489 17210 ft 334 kts 301°
2026-05-05 02:54 39.41846 -103.94886 17111 ft 320 kts 301°
2026-05-05 02:54 39.43033 -103.97254 16896 ft 308 kts 295°
2026-05-05 02:54 39.43793 -103.99796 16614 ft 301 kts 282°
2026-05-05 02:55 39.44053 -104.02464 16357 ft 299 kts 269°
2026-05-05 02:55 39.43963 -104.05145 16117 ft 299 kts 266°
2026-05-05 02:55 39.43866 -104.07824 15787 ft 298 kts 266°
2026-05-05 02:55 39.43775 -104.10501 15421 ft 298 kts 266°
2026-05-05 02:56 39.43685 -104.13176 15058 ft 298 kts 266°
2026-05-05 02:56 39.43594 -104.15849 14684 ft 297 kts 266°
2026-05-05 02:56 39.43502 -104.18504 14315 ft 295 kts 266°
2026-05-05 02:56 39.43411 -104.21080 13959 ft 286 kts 266°
2026-05-05 02:57 39.43321 -104.23603 13631 ft 275 kts 267°
2026-05-05 02:57 39.43233 -104.26031 13273 ft 265 kts 267°
2026-05-05 02:57 39.43148 -104.28367 12951 ft 254 kts 267°
2026-05-05 02:57 39.43064 -104.30636 12646 ft 253 kts 267°
2026-05-05 02:58 39.42977 -104.32922 12340 ft 254 kts 267°
2026-05-05 02:58 39.42890 -104.35200 12024 ft 253 kts 268°
2026-05-05 02:58 39.42804 -104.37462 11730 ft 253 kts 267°
2026-05-05 02:58 39.42718 -104.39745 11417 ft 254 kts 268°
2026-05-05 02:59 39.42633 -104.42000 11104 ft 255 kts 268°
2026-05-05 02:59 39.42549 -104.44298 10811 ft 256 kts 268°
2026-05-05 02:59 39.42470 -104.46610 10602 ft 259 kts 268°
2026-05-05 02:59 39.42394 -104.48935 10364 ft 260 kts 268°
2026-05-05 03:00 39.42323 -104.51275 10136 ft 261 kts 268°
2026-05-05 03:00 39.42253 -104.53621 9892 ft 261 kts 268°
2026-05-05 03:00 39.42189 -104.55980 9645 ft 264 kts 269°
2026-05-05 03:00 39.42137 -104.58354 9350 ft 263 kts 272°
2026-05-05 03:01 39.42496 -104.60630 8957 ft 260 kts 294°
2026-05-05 03:01 39.43435 -104.62555 8841 ft 247 kts 314°
2026-05-05 03:01 39.44723 -104.63910 8794 ft 234 kts 331°
2026-05-05 03:01 39.46177 -104.64792 8795 ft 228 kts 337°
2026-05-05 03:02 39.47608 -104.65644 9171 ft 229 kts 337°
2026-05-05 03:02 39.49132 -104.66271 9561 ft 231 kts 350°
2026-05-05 03:02 39.50738 -104.66446 9931 ft 233 kts
2026-05-05 03:02 39.52366 -104.66421 10018 ft 234 kts
2026-05-05 03:03 39.53973 -104.66400 9941 ft 233 kts
2026-05-05 03:03 39.55592 -104.66380 10005 ft 234 kts
2026-05-05 03:03 39.57230 -104.66360 10023 ft 235 kts
2026-05-05 03:03 39.58851 -104.66340 9983 ft 228 kts
2026-05-05 03:04 39.60415 -104.66322 9803 ft 222 kts
2026-05-05 03:04 39.61938 -104.66304 9560 ft 215 kts
2026-05-05 03:04 39.63415 -104.66288 9251 ft 209 kts
2026-05-05 03:04 39.64858 -104.66271 8968 ft 206 kts
2026-05-05 03:05 39.66282 -104.66253 8686 ft 204 kts
2026-05-05 03:05 39.67697 -104.66237 8411 ft 202 kts
2026-05-05 03:05 39.69075 -104.66220 8155 ft 199 kts
2026-05-05 03:05 39.70417 -104.66205 7894 ft 185 kts
2026-05-05 03:06 39.71673 -104.66190 7664 ft 176 kts
2026-05-05 03:06 39.72880 -104.66175 7438 ft 171 kts
2026-05-05 03:06 39.74078 -104.66161 7212 ft 172 kts
2026-05-05 03:06 39.75271 -104.66146 7002 ft 169 kts
2026-05-05 03:07 39.76357 -104.66134 6796 ft 146 kts
2026-05-05 03:07 39.77339 -104.66122 6649 ft 137 kts
2026-05-05 03:07 39.78264 -104.66111 6475 ft 132 kts
2026-05-05 03:07 39.79194 -104.66099 6284 ft 131 kts
2026-05-05 03:08 39.80099 -104.66089 6083 ft 133 kts
2026-05-05 03:08 39.81026 -104.66078 5877 ft 132 kts
2026-05-05 03:08 39.81943 -104.66072 5648 ft 131 kts
2026-05-05 03:08 39.82841 -104.66058 5499 ft 128 kts
2026-05-05 03:09 39.83687 -104.66046 5418 ft 109 kts
2026-05-05 03:09 39.84295 -104.66038 5415 ft 63 kts
2026-05-05 03:09 39.84629 -104.66038 5410 ft 34 kts 356°
2026-05-05 03:09 39.84815 -104.66096 5405 ft 20 kts 336°
2026-05-05 03:10 39.84889 -104.66146 5407 ft 2 kts 332°
2026-05-05 03:10 39.84912 -104.66161 5402 ft 6 kts 332°
2026-05-05 03:10 39.84966 -104.66198 5404 ft 12 kts 333°
2026-05-05 03:10 39.85067 -104.66241 5401 ft 19 kts 355°
2026-05-05 03:11 39.85207 -104.66240 5394 ft 19 kts
2026-05-05 03:11 39.85339 -104.66239 5397 ft 20 kts
2026-05-05 03:11 39.85451 -104.66238 5393 ft 15 kts
2026-05-05 03:11 39.85573 -104.66233 5393 ft 21 kts
2026-05-05 03:12 39.85742 -104.66230 5390 ft 21 kts 359°
2026-05-05 03:12 39.85864 -104.66234 5388 ft 20 kts
2026-05-05 03:12 39.85999 -104.66259 5387 ft 20 kts 316°
2026-05-05 03:12 39.86017 -104.66427 5383 ft 18 kts 271°
2026-05-05 03:13 39.86052 -104.66603 5377 ft 22 kts 282°
2026-05-05 03:13 39.86061 -104.66811 5376 ft 23 kts 271°
2026-05-05 03:13 39.86062 -104.67016 5378 ft 21 kts 271°
2026-05-05 03:13 39.86064 -104.67214 5377 ft 23 kts 271°
2026-05-05 03:14 39.86065 -104.67400 5377 ft 19 kts 270°
2026-05-05 03:14 39.86061 -104.67571 5377 ft 19 kts 252°
2026-05-05 03:14 39.86012 -104.67729 5380 ft 16 kts 275°
2026-05-05 03:14 39.86014 -104.67877 5380 ft 17 kts 271°
2026-05-05 03:15 39.85971 -104.67949 5377 ft 10 kts 178°
2026-05-05 03:15 39.85935 -104.67949 5378 ft 2 kts 180°
2026-05-05 03:15 39.85931 -104.67949 5380 ft 0 kts 179°